User: anonymous   Login
Location: Kalberh�ni
(46.4610°N, 7.2453°E)
Time: 00:01:39
(UTC+00:00)
Language:

Meteor 2-1 Rocket - Orbit

View from above orbital plane
View from above orbital plane
View from above satellite
View from above satellite

Ground track
Ground track

The orbit data is extracted from the following two-line orbital elements,

1 08027U 75064B   21263.33147832  .00000006  00000-0 -37142-5 0  9993
2 08027  81.3013 356.8036 0053543 192.3104 167.6761 14.07371326371083
Epoch (UTC): 20 September 2021 07:57:19
Eccentricity: 0.0053543
inclination: 81.3013°
perigee height: 829 km
apogee height: 907 km
right ascension of ascending node: 356.8036°
argument of perigee: 192.3104°
revolutions per day: 14.07371326
mean anomaly at epoch: 167.6761°
orbit number at epoch: 37108

The dashed part of the orbit path shows where the satellite is in the earth's shadow,  

DLR